Total_Precipitation_Accumulation
2.80 2.89 2.66 2.58 2.47 2.62 2.78 2.76 2.52 2.60 2.70 2.62 2.37 2.20 2.08 1.84 1.72 1.63 1.72 2.01 1.99 1.99 2.24 2.25 2.18 2.07 1.84 1.58 1.46 1.38 1.32 1.22 1.06 0.86 0.78 0.70 0.61 0.50 0.38 0.32 0.29 0.27 0.28
2.63 2.53 2.58 2.67 2.51 2.53 2.52 2.51 2.53 2.73 2.84 2.87 2.54 2.30 2.21 2.03 1.85 1.80 1.79 2.07 2.10 1.97 2.14 2.47 2.62 2.56 2.44 2.13 1.90 1.78 1.67 1.53 1.27 0.95 0.85 0.79 0.68 0.59 0.52 0.48 0.43 0.35 0.30
2.56 2.57 2.54 2.42 2.39 2.42 2.53 2.56 2.59 2.71 2.60 2.64 2.59 2.43 2.36 2.18 2.04 1.90 1.87 1.89 1.74 1.91 2.10 2.33 2.60 2.68 2.76 2.62 2.49 2.33 2.10 1.80 1.47 1.11 0.87 0.81 0.74 0.62 0.57 0.57 0.56 0.48 0.40
2.31 2.45 2.27 2.24 2.29 2.13 2.16 2.32 2.28 2.35 2.43 2.55 2.54 2.31 2.25 2.28 2.10 2.02 1.89 1.80 1.90 1.69 2.00 2.32 2.51 2.48 2.67 2.94 3.14 3.13 2.69 2.10 1.66 1.32 1.07 0.93 0.85 0.70 0.59 0.55 0.54 0.55 0.46
1.86 1.97 1.93 2.02 1.98 1.92 1.96 1.76 2.09 2.22 2.33 2.39 2.20 2.15 2.02 2.22 2.18 1.97 1.92 1.71 1.88 1.87 1.92 2.03 2.27 2.24 2.49 3.01 3.52 3.66 3.40 2.74 2.10 1.75 1.56 1.39 1.29 1.08 0.82 0.69 0.61 0.58 0.50
1.77 1.75 1.73 1.80 1.71 1.78 1.92 1.97 2.16 2.14 2.06 2.06 1.78 1.88 1.89 1.71 1.80 1.83 1.74 1.74 1.75 1.50 1.63 1.90 2.20 1.90 2.23 2.71 3.12 3.40 3.59 3.42 2.88 2.40 2.16 2.08 2.00 1.66 1.19 0.94 0.81 0.72 0.62
1.71 1.80 1.60 1.72 1.60 1.63 1.67 1.70 1.83 1.84 1.80 1.86 2.02 1.99 1.68 1.44 1.42 1.44 1.53 1.73 1.63 1.57 1.72 2.04 2.19 2.12 1.89 1.95 2.17 2.64 3.32 3.63 3.48 3.00 2.62 2.39 2.32 2.03 1.50 1.20 1.01 0.93 0.87
1.47 1.43 1.57 1.55 1.50 1.66 1.68 1.65 1.73 1.70 1.59 1.64 1.88 2.11 1.83 1.65 1.36 1.05 1.19 1.21 1.31 1.56 1.67 1.74 1.86 2.10 1.97 2.10 1.75 1.90 2.64 3.27 3.72 3.63 3.22 2.74 2.43 2.16 1.81 1.53 1.25 1.09 1.04
1.22 1.29 1.33 1.35 1.48 1.49 1.61 1.65 1.55 1.61 1.63 1.58 1.63 1.94 1.94 1.78 1.52 1.12 0.98 1.03 1.19 1.38 1.43 1.63 1.67 1.77 1.76 2.10 2.25 2.00 2.03 2.32 3.16 3.82 3.82 3.24 2.59 2.11 1.89 1.78 1.66 1.46 1.28
1.15 1.12 1.17 1.22 1.35 1.31 1.52 1.36 1.43 1.62 1.67 1.53 1.46 1.44 1.53 1.59 1.69 1.47 1.16 1.01 1.10 1.19 1.26 1.30 1.47 1.72 1.87 2.01 2.17 2.02 1.70 1.71 2.32 3.09 3.59 3.52 3.02 2.48 2.15 2.07 2.25 2.19 1.82
1.32 1.17 1.22 1.27 1.33 1.26 1.30 1.29 1.56 1.55 1.50 1.43 1.41 1.43 1.45 1.44 1.43 1.48 1.37 1.19 1.11 0.95 0.98 1.10 1.37 1.56 1.66 1.87 2.18 1.98 1.71 1.54 1.68 2.14 2.65 2.98 3.04 2.74 2.42 2.32 2.62 2.83 2.61
1.40 1.26 1.26 1.29 1.25 1.23 1.21 1.19 1.38 1.42 1.48 1.51 1.45 1.35 1.44 1.41 1.39 1.49 1.34 1.17 1.06 0.78 0.75 0.87 1.07 1.21 1.35 1.60 1.75 1.79 1.76 1.72 1.66 1.73 1.84 2.11 2.40 2.47 2.45 2.56 2.87 3.11 3.19
1.14 1.17 1.19 1.23 1.11 1.14 1.23 1.35 1.37 1.36 1.43 1.45 1.37 1.29 1.27 1.16 1.23 1.31 1.24 1.05 1.02 0.85 0.92 0.85 0.89 1.10 1.25 1.57 1.69 1.72 1.60 1.63 1.46 1.39 1.41 1.49 1.63 1.87 2.15 2.37 2.67 3.00 3.33
1.11 1.15 1.17 1.12 1.10 1.14 1.17 1.41 1.31 1.29 1.33 1.30 1.18 1.38 1.32 1.10 1.21 1.25 1.31 1.44 1.31 1.17 1.18 0.99 0.98 1.24 1.55 1.66 1.83 1.79 1.44 1.44 1.29 1.18 1.10 1.12 1.22 1.37 1.52 1.71 1.95 2.15 2.39
1.20 1.25 1.24 1.21 1.21 1.30 1.40 1.52 1.40 1.39 1.43 1.28 1.26 1.45 1.40 1.26 1.26 1.23 1.34 1.55 1.66 1.46 1.33 1.29 1.29 1.31 1.50 1.59 1.74 1.61 1.44 1.49 1.35 1.19 1.08 1.02 1.05 1.12 1.20 1.25 1.34 1.44 1.55
1.26 1.33 1.31 1.27 1.32 1.37 1.47 1.55 1.43 1.47 1.46 1.37 1.41 1.55 1.52 1.40 1.41 1.37 1.38 1.51 1.73 1.71 1.52 1.32 1.36 1.32 1.37 1.27 1.45 1.34 1.36 1.47 1.32 1.22 1.17 1.12 1.08 1.09 1.10 1.16 1.19 1.18 1.18
1.33 1.33 1.33 1.32 1.31 1.37 1.44 1.50 1.42 1.43 1.39 1.42 1.42 1.46 1.46 1.56 1.61 1.59 1.67 1.69 1.75 1.87 1.72 1.41 1.44 1.55 1.53 1.37 1.34 1.30 1.27 1.27 1.23 1.27 1.20 1.17 1.12 1.06 0.99 0.96 1.01 1.04 1.02
1.28 1.33 1.37 1.31 1.21 1.28 1.41 1.42 1.37 1.41 1.45 1.42 1.48 1.62 1.56 1.60 1.68 1.73 1.85 1.79 1.84 2.06 2.03 1.77 1.72 1.79 1.66 1.55 1.48 1.39 1.21 1.16 1.17 1.30 1.21 1.14 1.06 0.98 0.93 0.90 0.87 0.87 0.87
1.36 1.32 1.29 1.21 1.20 1.23 1.29 1.33 1.42 1.54 1.59 1.62 1.69 1.77 1.80 1.94 1.85 1.86 1.91 1.88 1.93 2.14 2.32 2.14 1.99 2.07 2.01 1.77 1.65 1.44 1.29 1.30 1.14 1.19 1.23 1.15 1.09 1.03 0.96 0.96 0.96 0.90 0.83
1.43 1.44 1.44 1.46 1.47 1.41 1.40 1.44 1.55 1.63 1.66 1.73 1.86 1.88 1.90 1.94 1.98 2.07 2.07 2.15 2.28 2.44 2.58 2.46 2.35 2.41 2.39 2.20 1.97 1.64 1.53 1.45 1.33 1.19 1.26 1.24 1.19 1.13 1.04 0.97 0.93 0.92 0.89
1.68 1.79 1.78 1.75 1.77 1.72 1.56 1.65 1.72 1.70 1.81 1.75 1.82 1.86 1.82 1.89 1.93 2.03 2.01 2.17 2.42 2.61 2.73 2.75 2.72 2.86 2.76 2.57 2.25 1.92 1.83 1.74 1.61 1.41 1.32 1.21 1.18 1.12 1.09 1.06 1.01 0.98 0.96
1.89 1.95 1.89 1.88 1.87 1.66 1.76 1.83 1.80 1.86 1.90 1.86 1.88 1.89 1.85 1.81 1.75 1.78 1.84 1.94 2.10 2.30 2.55 2.75 2.82 2.90 2.92 2.78 2.58 2.32 2.00 1.75 1.60 1.47 1.47 1.37 1.25 1.19 1.08 0.99 1.09 1.05 0.99
1.81 1.88 1.90 1.91 1.81 1.77 1.77 1.63 1.63 1.63 1.74 1.81 1.84 1.85 1.68 1.57 1.59 1.52 1.63 1.67 1.66 1.75 1.89 2.16 2.37 2.43 2.63 2.74 2.63 2.29 1.98 1.73 1.54 1.49 1.52 1.43 1.33 1.23 1.11 1.08 1.17 1.05 0.99
2.10 2.10 2.02 1.97 1.96 1.85 1.73 1.57 1.58 1.46 1.51 1.56 1.60 1.64 1.65 1.56 1.53 1.59 1.58 1.47 1.35 1.35 1.45 1.48 1.60 1.85 2.12 2.42 2.50 2.37 2.29 2.00 1.71 1.49 1.44 1.40 1.25 1.16 1.10 1.07 1.16 1.08 1.01
2.24 2.20 2.17 2.19 2.22 2.20 2.09 1.79 1.66 1.53 1.58 1.60 1.60 1.60 1.61 1.48 1.53 1.47 1.42 1.40 1.31 1.26 1.28 1.33 1.39 1.58 1.87 2.09 2.29 2.29 2.21 2.08 1.82 1.53 1.38 1.35 1.23 1.20 1.18 1.09 1.07 1.09 1.01
2.14 2.13 2.07 2.13 2.11 2.13 2.19 1.87 1.64 1.47 1.53 1.55 1.61 1.63 1.66 1.51 1.56 1.48 1.44 1.48 1.38 1.29 1.29 1.27 1.30 1.36 1.44 1.71 1.99 2.00 1.95 1.96 1.81 1.58 1.33 1.31 1.24 1.24 1.27 1.07 0.90 0.87 0.88